Weather History for KellyUSA Airport, TX

Change the Weather History Date:

Thursday, January 10, 2013

  Actual Average Record
Temperature  
Mean Temperature 53 °F -  
Max Temperature 66 °F 63 °F 80 °F (2000)
Min Temperature 40 °F 41 °F 26 °F (1999)
Degree Days  
Heating Degree Days 12    
Growing Degree Days 3 (Base 50)    
Moisture  
Dew Point 46 °F    
Average Humidity 89    
Maximum Humidity 100    
Minimum Humidity 41    
Precipitation  
Precipitation 0.01 in - - ()
Sea Level Pressure  
Sea Level Pressure 30.03 in    
Wind  
Wind Speed 5 mph (SSW)    
Max Wind Speed 16 mph    
Max Gust Speed 24 mph    
Visibility 5 miles    
Events Fog    
Averages and records for this station are not official NWS values.
T = Trace of Precipitation, MM = Missing Value Source: NWS Daily Summary

Daily Weather History Graph

Daily Weather History Graph

Search for Another Location

Airport:

Trip Planner

Search our weather history database for the weather conditions in past years. The results will help you decide how hot, cold, wet, or windy it might be!

Date:

Astronomy

Jan. 10, 2013 Rise Set
Actual Time 7:30 AM CST 5:54 PM CST
Civil Twilight 7:04 AM CST 6:20 PM CST
Nautical Twilight 6:34 AM CST 6:49 PM CST
Astronomical Twilight 6:06 AM CST 7:18 PM CST
Moon 6:11 AM CST (1/10) 5:02 PM CST (1/10)
Length of Visible Light 11h 15m
Length of Day
10h 24m
Waning Crescent, 2% of the Moon is Illuminated
Jan 10
Waning Crescent
Jan 11
New
Jan 18
First Quarter
Jan 26
Full
Feb 3
Last Quarter

Hourly Weather History & Observations

Time (CST) Temp. Windchill Dew Point Humidity Pressure Visibility Wind Dir Wind Speed Gust Speed Precip Events Conditions
12:00 AM 46.4 °F 45.2 °F 46.4 °F 100% 30.02 in 0.5 mi South 3.5 mph - N/A Fog Fog
12:02 AM 46.4 °F 44.3 °F 46.4 °F 100% 30.02 in 0.5 mi South 4.6 mph - N/A Fog Fog
12:14 AM 46.4 °F 43.5 °F 46.4 °F 100% 30.02 in 0.5 mi SW 5.8 mph - N/A Fog Fog
12:18 AM 48.2 °F - 48.2 °F 100% 30.02 in 0.5 mi SW 4.6 mph - N/A Fog Fog
12:21 AM 48.2 °F - 48.2 °F 100% 30.02 in 0.8 mi SSW 5.8 mph - N/A   Clear
12:28 AM 48.2 °F - 48.2 °F 100% 30.02 in 1.0 mi SSW 4.6 mph - N/A   Clear
12:33 AM 48.2 °F - 48.2 °F 100% 30.02 in 1.0 mi South 5.8 mph - N/A   Clear
12:34 AM 48.2 °F - 48.2 °F 100% 30.02 in 1.0 mi South 5.8 mph - N/A   Clear
12:35 AM 48.2 °F - 48.2 °F 100% 30.02 in 1.2 mi South 4.6 mph - N/A   Clear
12:36 AM 48.2 °F - 48.2 °F 100% 30.02 in 1.5 mi South 4.6 mph - N/A   Clear
12:38 AM 50.0 °F - 48.2 °F 94% 30.02 in 1.8 mi South 4.6 mph - N/A   Clear
12:39 AM 50.0 °F - 48.2 °F 94% 30.02 in 2.0 mi South 4.6 mph - N/A   Clear
12:41 AM 50.0 °F - 48.2 °F 94% 30.02 in 4.0 mi SSW 4.6 mph - N/A   Clear
12:42 AM 50.0 °F - 48.2 °F 94% 30.02 in 5.0 mi SSW 4.6 mph - N/A   Clear
12:55 AM 48.9 °F - 48.7 °F 99% 30.03 in 10.0 mi SSW 3.5 mph - N/A   Clear
1:07 AM 48.2 °F - 48.2 °F 100% 30.03 in 4.0 mi South 5.8 mph - N/A   Clear
1:09 AM 48.2 °F - 48.2 °F 100% 30.03 in 2.0 mi South 5.8 mph - N/A   Clear
1:11 AM 48.2 °F - 48.2 °F 100% 30.03 in 1.8 mi South 5.8 mph - N/A   Clear
1:16 AM 50.0 °F - 48.2 °F 94% 30.03 in 2.0 mi South 4.6 mph - N/A   Clear
1:18 AM 48.2 °F - 48.2 °F 100% 30.03 in 3.0 mi South 4.6 mph - N/A   Clear
1:20 AM 48.2 °F - 48.2 °F 100% 30.03 in 5.0 mi South 3.5 mph - N/A   Clear
1:23 AM 48.2 °F - 46.4 °F 93% 30.04 in 5.0 mi South 3.5 mph - N/A   Partly Cloudy
1:24 AM 46.4 °F 45.2 °F 46.4 °F 100% 30.04 in 4.0 mi South 3.5 mph - N/A   Partly Cloudy
1:27 AM 46.4 °F 45.2 °F 46.4 °F 100% 30.04 in 2.5 mi South 3.5 mph - N/A   Partly Cloudy
1:29 AM 48.2 °F - 46.4 °F 93% 30.04 in 1.5 mi South 3.5 mph - N/A   Scattered Clouds
1:31 AM 48.2 °F - 48.2 °F 100% 30.04 in 1.2 mi South 4.6 mph - N/A   Scattered Clouds
1:32 AM 48.2 °F - 48.2 °F 100% 30.04 in 1.2 mi South 4.6 mph - N/A   Scattered Clouds
1:33 AM 48.2 °F - 46.4 °F 93% 30.04 in 1.0 mi South 4.6 mph - N/A   Mist
1:34 AM 46.4 °F 44.3 °F 46.4 °F 100% 30.04 in 1.0 mi South 4.6 mph - N/A   Mist
1:41 AM 46.4 °F 44.3 °F 46.4 °F 100% 30.04 in 1.2 mi South 4.6 mph - N/A   Scattered Clouds
1:46 AM 46.4 °F 45.2 °F 46.4 °F 100% 30.04 in 1.2 mi SSW 3.5 mph - N/A   Scattered Clouds
1:48 AM 48.2 °F - 48.2 °F 100% 30.04 in 1.5 mi South 4.6 mph - N/A   Scattered Clouds
1:49 AM 48.2 °F - 48.2 °F 100% 30.04 in 1.5 mi SSW 5.8 mph - N/A   Scattered Clouds
1:50 AM 48.2 °F - 48.2 °F 100% 30.04 in 1.5 mi SSW 5.8 mph - N/A   Scattered Clouds
1:51 AM 48.2 °F - 48.2 °F 100% 30.04 in 1.8 mi SSW 5.8 mph - N/A   Scattered Clouds
1:52 AM 48.2 °F - 48.2 °F 100% 30.04 in 2.0 mi SSW 5.8 mph - N/A   Scattered Clouds
1:55 AM 48.2 °F - 47.8 °F 99% 30.05 in 3.0 mi SSW 6.9 mph - N/A   Partly Cloudy
1:57 AM 48.2 °F - 48.2 °F 100% 30.05 in 5.0 mi SSW 6.9 mph - N/A   Partly Cloudy
2:55 AM 47.1 °F - 46.9 °F 99% 30.05 in 10.0 mi SSW 4.6 mph - N/A   Clear
3:55 AM 46.9 °F - 46.6 °F 99% 30.05 in 10.0 mi SW 6.9 mph - N/A   Clear
4:55 AM 45.7 °F 42.7 °F 45.1 °F 98% 30.04 in 10.0 mi WSW 5.8 mph - N/A   Clear
5:55 AM 44.8 °F 39.9 °F 44.2 °F 98% 30.04 in 10.0 mi West 9.2 mph - N/A   Clear
6:55 AM 43.7 °F 41.1 °F 43.2 °F 98% 30.04 in 10.0 mi West 4.6 mph - N/A   Clear
7:55 AM 40.8 °F 37.8 °F 40.1 °F 97% 30.05 in 10.0 mi West 4.6 mph - N/A   Clear
8:55 AM 47.7 °F - 45.3 °F 92% 30.06 in 9.0 mi West 8.1 mph - N/A   Clear
9:55 AM 53.6 °F - 43.7 °F 69% 30.04 in 10.0 mi West 13.8 mph - 0.01 in   Clear
10:55 AM 57.9 °F - 43.9 °F 60% 30.04 in 10.0 mi West 16.1 mph 24.2 mph N/A   Clear
11:55 AM 61.0 °F - 42.1 °F 50% 30.03 in 10.0 mi West 16.1 mph - N/A   Clear
12:55 PM 63.3 °F - 43.0 °F 47% 30.01 in 10.0 mi West 11.5 mph - N/A   Clear
1:55 PM 65.1 °F - 41.5 °F 42% 30.00 in 10.0 mi WNW 13.8 mph - N/A   Clear
2:55 PM 65.7 °F - 41.4 °F 41% 29.97 in 10.0 mi West 9.2 mph - N/A   Clear
3:55 PM 66.2 °F - 42.8 °F 43% 29.98 in 10.0 mi SW 6.9 mph - N/A   Clear
4:55 PM 65.5 °F - 43.0 °F 44% 29.99 in 10.0 mi WSW 8.1 mph - N/A   Clear
5:55 PM 61.5 °F - 43.2 °F 51% 29.99 in 10.0 mi SSW 5.8 mph - N/A   Clear
6:55 PM 55.9 °F - 42.8 °F 61% 30.01 in 10.0 mi South 4.6 mph - N/A   Clear
7:55 PM 53.1 °F - 43.2 °F 69% 30.01 in 10.0 mi Calm Calm - N/A   Clear
8:55 PM 48.6 °F - 42.6 °F 80% 30.01 in 9.0 mi Calm Calm - N/A   Clear
9:55 PM 45.1 °F - 40.8 °F 85% 30.01 in 8.0 mi Calm Calm - N/A   Clear
10:55 PM 43.5 °F - 39.9 °F 87% 30.01 in 7.0 mi Calm Calm - N/A   Clear
11:55 PM 44.6 °F - 41.0 °F 87% 30.01 in 10.0 mi Calm Calm - N/A   Clear